ZHONGXING-6E

Last updated on Mon Jun 22 2026 00:03:08 GMT+0000 (Coordinated Universal Time)

1 58253U 23172A 26172.26364315 -.00000363 00000+0 00000+0 0 9997 2 58253 0.0480 90.8226 0002889 352.6953 36.3685 1.00269602 9707
UTC large
Height (km)
Speed (km/s)
/
Latitude / Longitude
Inclination (degrees)
Orbital Period (minutes)
Azimuth
Elevation
Range (km)
Doppler Factor

Next 0 passes for location: London (51.5072 / 0.1276)

No passes found over London.
ZHONGXING-6E